This is the latest recevied weather packets stored in our database for station/object W0DXV. If no packets are shown the sender has not sent any weather packets the latest 10 day(s).
| Time | Temp. | Humidity | Pressure | Rain* | Wind** | Luminosity | Snow |
|---|---|---|---|---|---|---|---|
| 1777845763 | 18.33° C | 33% | 1012 hPa | 0 mm | - | 35 W/m² | - |
| 1777845459 | 18.33° C | 37% | 1011.8 hPa | 0 mm | - | 36 W/m² | - |
| 1777845157 | 18.33° C | 36% | 1011.8 hPa | 0 mm | - | 36 W/m² | - |
| 1777844855 | 18.33° C | 31% | 1011.9 hPa | 0 mm | - | 37 W/m² | - |
| 1777844551 | 18.33° C | 34% | 1012.1 hPa | 0 mm | - | 38 W/m² | - |
| 1777844249 | 18.89° C | 32% | 1012 hPa | 0 mm | - | 38 W/m² | - |
| 1777843946 | 18.89° C | 32% | 1012.1 hPa | 0 mm | - | 42 W/m² | - |
| 1777843643 | 18.89° C | 33% | 1012.4 hPa | 0 mm | - | 47 W/m² | - |
| 1777843341 | 18.89° C | 31% | 1012.3 hPa | 0 mm | - | 41 W/m² | - |
| 1777843038 | 18.89° C | 30% | 1012.2 hPa | 0 mm | - | 41 W/m² | - |
| 1777842734 | 18.89° C | 34% | 1012.4 hPa | 0 mm | - | 41 W/m² | - |
| 1777842430 | 18.89° C | 33% | 1012.5 hPa | 0 mm | - | 42 W/m² | - |
| 1777842127 | 18.89° C | 34% | 1012.5 hPa | 0 mm | - | 43 W/m² | - |
| 1777841822 | 18.89° C | 31% | 1012.6 hPa | 0 mm | - | 44 W/m² | - |
| 1777841519 | 18.89° C | 31% | 1012.5 hPa | 0 mm | - | 45 W/m² | - |
| 1777841215 | 19.44° C | 33% | 1012.6 hPa | 0 mm | - | 230 W/m² | - |
| 1777840913 | 19.44° C | 33% | 1012.5 hPa | 0 mm | - | 115 W/m² | - |
| 1777840610 | 20° C | 30% | 1012.8 hPa | 0 mm | - | 468 W/m² | - |
| 1777840308 | 19.44° C | 30% | 1012.8 hPa | 0 mm | - | 482 W/m² | - |
| 1777840004 | 20° C | 32% | 1012.8 hPa | 0 mm | - | 496 W/m² | - |
| 1777839703 | 20.56° C | 31% | 1012.7 hPa | 0 mm | - | 508 W/m² | - |
| 1777839401 | 20° C | 30% | 1012.9 hPa | 0 mm | - | 522 W/m² | - |
| 1777839098 | 20° C | 32% | 1013.1 hPa | 0 mm | - | 534 W/m² | - |
| 1777838793 | 20° C | 32% | 1013.2 hPa | 0 mm | - | 546 W/m² | - |
| 1777838490 | 20° C | 32% | 1013 hPa | 0 mm | - | 558 W/m² | - |
* Rain latest hour (hover to see other rain measurements)
** Current wind speed in m/s (hover to see current wind gust speed)